Regional Weather Roundup
Issued by NWS

Home | Current Version | Previous Version | Text Only | Print | Product List | Glossary Off
Versions: 1 2 3 4 5 6 7 8 9 10 11 12 13 14 15 16 17 18 19 20 21 22 23 24 25 26 27 28 29 30 31 32 33 34 35 36 37 38 39 40 41 42 43 44 45 46 47 48 49 50

000
ASUS43 KMPX 161910
RWRMN
WEATHER ROUNDUP FOR MINNESOTA
NATIONAL WEATHER SERVICE TWIN CITIES/CHANHASSEN MN
200 PM CDT WED AUG 16 2017


NOTE: "FAIR" INDICATES FEW OR NO CLOUDS BELOW 12,000 FEET WITH NO
SIGNIFICANT WEATHER AND/OR OBSTRUCTIONS TO VISIBILITY. N/A MEANS
CURRENT SKY AND/OR WEATHER CONDITIONS ARE NOT AVAILABLE.

MNZ060>063-068>070-162000-
   Twin Cities Metro

CITY           SKY/WX    TMP DP  RH WIND       PRES   REMARKS
TWIN CITIES    CLOUDY    75  66  73 SE12      29.85F
ST PAUL        CLOUDY    74  68  81 E8        29.86F
CRYSTAL        CLOUDY    73  63  70 SE6       29.85S
BLAINE         CLOUDY    73  68  83 SE9       29.87S
LAKEVILLE      CLOUDY    75  68  78 E7        29.84F
EDEN PRAIRIE   CLOUDY    75  67  76 SE10      29.84F
SOUTH ST PAUL  CLOUDY    75  67  75 SE5       29.85F
LAKE ELMO      FAIR      73  68  83 SE7       29.88F
$$
MNZ001>005-007-008-013>017-022>024-027-028-162000-
   Northwest Minnesota

CITY           SKY/WX    TMP DP  RH WIND       PRES   REMARKS
BEMIDJI        CLOUDY    64  62  95 SE9       29.89S
HALLOCK        CLOUDY    66  64  94 E6        29.87F
ROSEAU         DRIZZLE   64  59  82 E7        29.89F
WARROAD        PTSUNNY   64  61  88 SE12      29.91F
THIEF RVR FALL LGT RAIN  64  64 100 E5        29.88S FOG
CROOKSTON      LGT RAIN  64  64 100 CALM      29.86F
FOSSTON        RAIN      64  63  94 SE3       29.88S
DETROIT LAKES  DRIZZLE   66  63  88 SE5       29.87F
MOORHEAD       DRIZZLE   66  64  94 CALM      29.85S
PARK RAPIDS    CLOUDY    66  63  90 SE8       29.88F FOG
MAHNOMEN       DRIZZLE   64  63  96 SE3       29.87S
$$
MNZ006-009>011-018-025>026-162000-
   North Central Minnesota

CITY           SKY/WX    TMP DP  RH WIND       PRES   REMARKS
BAUDETTE       CLOUDY    63  59  87 E9        29.90F
FLAG ISLAND    CLOUDY    64  63  94 CALM      29.89F
INTL FALLS     CLOUDY    69  57  65 E7        29.92S
WASKISH        LGT RAIN  64  63  94 E3        29.89F
BIG FORK       CLOUDY    66  59  77 SE7       29.91F
LONGVILLE      DRIZZLE   64  63  94 CALM      29.90S
GRAND RAPIDS   LGT RAIN  64  62  93 SE8       29.93S
CRANE LAKE     CLOUDY    73  55  53 SE5       29.95F
ORR            CLOUDY    72  54  53 SE7       29.90F
COOK             N/A     72  55  56 SE8       29.94F
WALKER         CLOUDY    64  62  92 SE6       29.89F
$$
MNZ012-019>021-037-162000-
   Northeast Minnesota

CITY           SKY/WX    TMP DP  RH WIND       PRES   REMARKS
DULUTH         HVY RAIN  61  60  97 E9        29.95F FOG
ELY            PTSUNNY   73  52  46 SE12      29.95S
HIBBING        LGT RAIN  66  59  78 SE9       29.93F
EVELETH        CLOUDY    68  55  64 E8        29.95F
DULUTH HARBOR  HVY RAIN  63  61  94 NE21      29.95F
TWO HARBORS    LGT RAIN  66  61  82 E12       29.94F
SILVER BAY     CLOUDY    66  59  77 NE8       29.96F
GRAND MARAIS     N/A     64  58  80 E16       30.00F
$$
MNZ029>031-032-039>041-046>048-054>057-064-162000-
   West Central Minnesota

CITY           SKY/WX    TMP DP  RH WIND       PRES   REMARKS
FERGUS FALLS   DRIZZLE   68  68 100 CALM      29.83F
WHEATON        RAIN      70  64  83 CALM      29.84F
MORRIS         LGT RAIN  70  66  88 E8        29.82F
ALEXANDRIA     CLOUDY    67  65  93 SE8       29.87S
ELBOW LAKE     DRIZZLE   68  67  96 SE5       29.85S
WADENA         LGT RAIN  64  64 100 E5        29.87F
GLENWOOD       DRIZZLE   66  66 100 SE6       29.87S
APPLETON       RAIN      70  66  88 E8        29.82S
BENSON         HVY RAIN  70  66  88 S7        29.86S
ORTONVILLE     LGT RAIN  70  66  88 MISG      29.82F
MADISON        RAIN      72  72 100 E5        29.82F
WILLMAR        LGT RAIN  70  68  94 E5        29.85F
$$
MNZ033>034-036-042>043-049>051-058-059-162000-
   Central Minnesota

CITY           SKY/WX    TMP DP  RH WIND       PRES   REMARKS
ST CLOUD       CLOUDY    69  67  93 SE8       29.86F
SAUK CENTRE    CLOUDY    67  65  94 SE6       29.86F
PAYNESVILLE    CLOUDY    69  66  89 SE6       29.86F
AITKIN         CLOUDY    64  63  94 E3        29.89F
PINE RIVER     LGT RAIN  63  63 100 SE6       29.92F
BRAINERD       LGT RAIN  65  63  93 SE6       29.89F
STAPLES        DRIZZLE   64  64 100 E5        29.88S
LONG PRAIRIE   DRIZZLE   66  64  94 E3        29.87F
LITTLE FALLS   CLOUDY    66  63  88 E5        29.88S FOG
LITCHFIELD     CLOUDY    72  68  88 E6        29.85F
BUFFALO        CLOUDY    70  64  81 E8        29.87S
MAPLE LAKE     CLOUDY    71  67  88 SE5       29.87S
HUTCHINSON     CLOUDY    71  68  91 E9        29.84F
$$
MNZ037-044-045-052-053-162000-
   East Central Minnesota

CITY           SKY/WX    TMP DP  RH WIND       PRES   REMARKS
PRINCETON      CLOUDY    72  66  83 E7        29.87S
MORA           CLOUDY    70  64  83 SE3       29.90S
RUSH CITY      CLOUDY    71  65  80 CALM      29.88F HAZE
MOOSE LAKE     CLOUDY    63  61  94 CALM      29.90F
HINCKLEY       CLOUDY    72  64  78 E7        29.89F
CLOQUET        LGT RAIN  61  57  88 E13       29.94F
MCGREGOR       CLOUDY    64  63  94 E7        29.91F
$$
MNZ071>073-080-081-089-090-097-098-162000-
   Southwest Minnesota

CITY           SKY/WX    TMP DP  RH WIND       PRES   REMARKS
MONTEVIDEO     LGT RAIN  70  68  94 SE5       29.83F
GRANITE FALLS  RAIN      71  69  94 NE7       29.83F
CANBY          LGT RAIN  69  67  94 CALM      29.83F
MARSHALL       RAIN      68  67  96 E10       29.81F FOG
REDWOOD FALLS  RAIN      68  66  93 E5        29.81F FOG
OLIVIA         RAIN      70  68  94 SE6       29.84S
PIPESTONE      HVY RAIN  68  66  94 E5        29.80R
WINDOM         LGT RAIN  68  66  94 NE8       29.79F
WORTHINGTON    HVY RAIN  66  66 100 NE10      29.77F FOG
JACKSON        RAIN      68  68 100 E7        29.80S
TRACY          RAIN      68  68 100 NE7       29.80F
SLAYTON        HVY RAIN  67  62  85 NE8       29.80F
$$
MNZ065>067-074>077-082>085-091>093-162000-
   South Central Minnesota

CITY           SKY/WX    TMP DP  RH WIND       PRES   REMARKS
MANKATO        CLOUDY    74  69  85 E10       29.81F
NEW ULM        CLOUDY    70  66  88 E6        29.80F
ST JAMES       CLOUDY    72  68  88 E9        29.79F
FAIRMONT       CLOUDY    74  70  87 E9        29.78F
GLENCOE        CLOUDY    73  70  92 E7        29.83F
FARIBAULT      CLOUDY    75  70  83 E9        29.84F
OWATONNA       CLOUDY    79  72  78 E14       29.83F
WASECA         CLOUDY    77  70  78 E10       29.83F
ALBERT LEA     CLOUDY    81  73  78 SE10      29.82F
$$
MNZ078>079-086>088-094>096-162000-
   Southeast Minnesota

CITY           SKY/WX    TMP DP  RH WIND       PRES   REMARKS
ROCHESTER      CLOUDY    78  70  76 SE14      29.86F
RED WING       PTSUNNY   77  64  65 SE10      29.85F
STANTON        CLOUDY    77  68  74 E6        29.83F
DODGE CENTER   CLOUDY    79  70  73 SE10G18   29.85F
WINONA         CLOUDY    79  64  61 E12       29.88F
AUSTIN         PTSUNNY   77  70  78 SE12      29.84F
PRESTON        CLOUDY    79  67  66 SE13      29.88F
$$
ABBREVIATIONS USED IN REMARKS
   TC - TEMPERATURES IN CELSIUS
  WCI - WIND CHILL INDEX
   HX - HEAT INDEX
  VSB - VISIBILITY
$$



USA.gov is the U.S. government's official web portal to all federal, state and local government web resources and services.